Weather History for Henderson, NV

Change the Weather History Date:

Thursday, December 13, 2012

  Actual Average (KLAS) Record (KLAS)
Temperature  
Mean Temperature 50 °F 47 °F  
Max Temperature 55 °F 56 °F 70 °F (1952)
Min Temperature 44 °F 39 °F 19 °F (1949)
Degree Days  
Heating Degree Days 16 18  
Month to date heating degree days 215  
Since 1 July heating degree days 524  
Cooling Degree Days 0 0  
Month to date cooling degree days 0  
Year to date cooling degree days 3568  
Moisture  
Dew Point 40 °F    
Average Humidity 74    
Maximum Humidity 100    
Minimum Humidity 36    
Precipitation  
Precipitation 0.23 in 0.01 in 0.29 in (2012)
Month to date precipitation 0.17  
Year to date precipitation 3.86  
Snow  
Snow 0.00 in 0.00 in T in (1971)
Month to date snowfall 0.1  
Since 1 July snowfall 0.1  
Snow Depth -    
Sea Level Pressure  
Sea Level Pressure 29.76 in    
Wind  
Wind Speed 8 mph (SSE)    
Max Wind Speed 22 mph    
Max Gust Speed 31 mph    
Visibility 10 miles    
Events Rain    
T = Trace of Precipitation, MM = Missing Value Source: NWS Daily Summary

Daily Weather History Graph

Daily Weather History Graph

Search for Another Location

Airport:

Trip Planner

Search our weather history database for the weather conditions in past years. The results will help you decide how hot, cold, wet, or windy it might be!

Date:

Astronomy

Dec. 13, 2012 Rise Set
Actual Time 6:42 AM PST 4:27 PM PST
Civil Twilight 6:14 AM PST 4:55 PM PST
Nautical Twilight 5:42 AM PST 5:27 PM PST
Astronomical Twilight 5:10 AM PST 5:59 PM PST
Moon 6:56 AM PST (12/13) 5:13 PM PST (12/13)
Length of Visible Light 10h 41m
Length of Day
9h 44m
New Moon, 0% of the Moon is Illuminated
Dec 13
New Moon
Dec 19
First Quarter
Dec 28
Full
Jan 4
Last Quarter
Jan 11
New

Hourly Weather History & Observations

Time (PST) Temp. Windchill Dew Point Humidity Pressure Visibility Wind Dir Wind Speed Gust Speed Precip Events Conditions
12:56 AM 54.0 °F - 27.1 °F 36% 29.79 in 10.0 mi SSE 9.2 mph - N/A   Clear
1:56 AM 50.9 °F - 29.1 °F 43% 29.79 in 10.0 mi SSW 9.2 mph - N/A   Clear
2:56 AM 52.0 °F - 31.1 °F 45% 29.78 in 10.0 mi South 8.1 mph - N/A   Clear
3:56 AM 50.0 °F - 32.0 °F 50% 29.77 in 10.0 mi South 6.9 mph - N/A   Clear
4:56 AM 50.0 °F - 34.0 °F 54% 29.77 in 10.0 mi SSW 9.2 mph - N/A   Clear
6:56 AM 50.0 °F - 34.9 °F 56% 29.80 in 10.0 mi SSW 8.1 mph - N/A   Clear
7:56 AM 50.9 °F - 36.9 °F 59% 29.80 in 10.0 mi South 10.4 mph - N/A   Clear
8:56 AM 52.9 °F - 39.9 °F 61% 29.81 in 10.0 mi South 11.5 mph - N/A   Clear
9:56 AM 54.0 °F - 36.0 °F 51% 29.82 in 10.0 mi SSE 13.8 mph - N/A   Mostly Cloudy
10:56 AM 55.9 °F - 34.9 °F 45% 29.79 in 10.0 mi SSE 13.8 mph 24.2 mph N/A   Mostly Cloudy
11:56 AM 55.9 °F - 36.9 °F 49% 29.77 in 10.0 mi SSE 21.9 mph 31.1 mph N/A   Mostly Cloudy
12:56 PM 55.9 °F - 34.9 °F 45% 29.75 in 10.0 mi South 11.5 mph - 0.00 in   Overcast
1:56 PM 54.0 °F - 37.9 °F 55% 29.74 in 10.0 mi SSW 15.0 mph 23.0 mph 0.00 in Rain Heavy Rain
4:56 PM 46.9 °F - 43.9 °F 89% 29.77 in 10.0 mi Calm Calm - 0.02 in   Scattered Clouds
5:56 PM 47.8 °F - 43.9 °F 86% 29.76 in 10.0 mi Calm Calm - N/A   Mostly Cloudy
6:56 PM 46.9 °F - 45.0 °F 93% 29.76 in 10.0 mi Calm Calm - 0.00 in Rain Heavy Rain
7:44 PM 46.4 °F - 46.4 °F 100% 29.75 in 10.0 mi Calm Calm - 0.02 in Rain Heavy Rain
7:56 PM 46.9 °F - 46.9 °F 100% 29.75 in 10.0 mi Calm Calm - 0.03 in Rain Heavy Rain
8:05 PM 46.4 °F - 46.4 °F 100% 29.74 in 10.0 mi Calm Calm - 0.00 in Rain Heavy Rain
8:39 PM 46.4 °F - 46.4 °F 100% 29.75 in 10.0 mi Calm Calm - 0.01 in Rain Heavy Rain
8:56 PM 45.9 °F - 45.9 °F 100% 29.74 in 10.0 mi Calm Calm - 0.03 in Rain Heavy Rain
9:23 PM 46.4 °F 45.2 °F 46.4 °F 100% 29.74 in 10.0 mi NE 3.5 mph - 0.01 in Rain Heavy Rain
9:56 PM 45.9 °F - 45.9 °F 100% 29.73 in 9.0 mi Calm Calm - 0.06 in Rain Heavy Rain
10:56 PM 45.9 °F 42.9 °F 45.9 °F 100% 29.71 in 7.0 mi North 5.8 mph - 0.06 in Rain Heavy Rain
11:44 PM 44.6 °F 39.7 °F 44.6 °F 100% 29.69 in 10.0 mi NNE 9.2 mph - 0.02 in Rain Heavy Rain
11:56 PM 45.0 °F 40.1 °F 45.0 °F 100% 29.68 in 10.0 mi NNE 9.2 mph - 0.03 in Rain Heavy Rain